カタログに戻る

FENGYUN 1C DEB

運用中SSO
NORAD 36216·DEBRIS·🇨🇳 China

打ち上げ May 10, 1999 から Taiyuan Satellite Launch Center

Loading…

次のパス (今後24時間)

TLE

最新Source: Space-Track

元期: Sep 12, 2026, 07:28 UTC

1 36216U 99025DUR 26255.31170458  .00000382  00000-0  20122-3 0  9995
2 36216  98.5945 272.4174 0043526 308.1026  51.6228 14.19190620682527

AllMySatでFENGYUN 1C DEBをリアルタイム追跡

Download on the App Store